Regional Weather Roundup
Issued by NWS Northern Indiana

Home | Current Version | Previous Version | Graphics & Text | Print | Product List | Glossary On
Versions: 1 2 3 4 5 6 7 8 9 10 11 12 13 14 15 16 17 18 19 20 21 22 23 24 25 26 27 28 29 30 31 32 33 34 35 36 37 38 39 40 41 42 43 44 45 46 47 48 49 50
000
ASUS43 KIWX 250610
RWRIWX

KIWX WEATHER ROUNDUP
NATIONAL WEATHER SERVICE NORTHERN INDIANA
200 AM EDT SAT OCT 25 2014

NOTE: "FAIR" INDICATES FEW OR NO CLOUDS BELOW 12,000 FEET WITH NO
SIGNIFICANT WEATHER AND/OR OBSTRUCTIONS TO VISIBILITY.

* THESE STATIONS ARE NOT UNDER NWS QUALITY CONTROL. THEY ALSO MAY NOT
  REPORT WEATHER SUCH AS PRECIPITATION OR FOG.

INZ001>027-250700-
NORTHERN INDIANA

CITY           SKY/WX    TMP DP  RH WIND       PRES   REMARKS
GARY*          CLOUDY    60  51  71 CALM      29.93F
VALPARAISO     CLOUDY    55  50  83 S3        29.95F
6HR MIN TEMP:  50; 6HR MAX TEMP:  57; 6HR PCP: TRACE;

MICHIGAN CITY* CLOUDY    55  46  71 SW5       29.94F
LAPORTE*       CLOUDY    56  52  86 SW3       29.95F
6HR MIN TEMP:  47; 6HR MAX TEMP:  56;

KNOX*          CLOUDY    54  49  83 SW3       29.95F
6HR MIN TEMP:  29; 6HR MAX TEMP:  81;

SOUTH BEND     CLOUDY    54  48  80 SW8       29.96S
6HR MIN TEMP:  49; 6HR MAX TEMP:  54; 6HR PCP: TRACE;

GOSHEN         CLOUDY    53  50  89 W6        29.95S
6HR MIN TEMP:  47; 6HR MAX TEMP:  55;

MONTICELLO*    CLOUDY    53  51  94 S3        29.96F
6HR MIN TEMP:  50; 6HR MAX TEMP:  58;

LOGANSPORT*    MOCLDY    50  46  87 SW6       29.98R
ROCHESTER*     MOCLDY    55  52  88 SW3       29.97R
WARSAW*        MOCLDY    50  50 100 CALM      29.95F
ANGOLA*        MOCLDY    45  43  93 CALM      29.95F VSB 1/2
FORT WAYNE     PTCLDY    48  46  93 SW6       29.98S
6HR MIN TEMP:  48; 6HR MAX TEMP:  52;

HUNTINGTON*    PTCLDY   N/A N/A N/A S3        29.97S
PERU/GRISSOM   PTCLDY    50  50 100 SW3       29.97S
6HR MIN TEMP:  50; 6HR MAX TEMP:  53;

MARION*        MOCLDY    49  46  92 S6        29.98F
6HR MIN TEMP:  29; 6HR MAX TEMP:  90;


$$
INZ028>050-250700-
CENTRAL INDIANA

CITY           SKY/WX    TMP DP  RH WIND       PRES   REMARKS
LAFAYETTE      CLOUDY    52  51  97 CALM      29.97R
6HR MIN TEMP:  50; 6HR MAX TEMP:  55;

KOKOMO*        MOCLDY    52  46  82 S6        29.98S
6HR MIN TEMP:  50; 6HR MAX TEMP:  55;

MUNCIE*        PTCLDY    53  48  83 SW6       29.99F
6HR MIN TEMP:  52; 6HR MAX TEMP:  58;

INDIANAPOLIS   MOCLDY    50  48  93 S6        29.99F
6HR MIN TEMP:  50; 6HR MAX TEMP:  59;


$$
MIZ043>046-050>051-056>058-064>065-071>073-077>080-250700-
SOUTHWEST LOWER MICHIGAN

CITY           SKY/WX    TMP DP  RH WIND       PRES   REMARKS
BATTLE CREEK   MOCLDY    45  41  86 S3        29.94S
6HR MIN TEMP:  43; 6HR MAX TEMP:  54;

BENTON HARBOR  CLOUDY    53  49  86 SW3       29.92F
6HR MIN TEMP:  46; 6HR MAX TEMP:  54; 6HR PCP: TRACE;

COLDWATER*     PTCLDY    49  49  97 SW7       29.95S FOG
6HR MIN TEMP:  43; 6HR MAX TEMP:  52;

HILLSDALE*     MOCLDY    45  45  99 SW3       29.94F FOG
6HR MIN TEMP:  44; 6HR MAX TEMP:  51;

HOLLAND        CLOUDY    53  49  86 S5        29.91F
6HR MIN TEMP:  47; 6HR MAX TEMP:  53;

GRAND RAPIDS   MOCLDY    46  44  93 CALM      29.91F FOG
6HR MIN TEMP:  44; 6HR MAX TEMP:  54;

KALAMAZOO      MOCLDY    49  47  93 S6        29.93F FOG
6HR MIN TEMP:  43; 6HR MAX TEMP:  53;

STURGIS*       CLEAR     46  46 100 S3        29.94F FOG
THREE RIVERS*  MOCLDY    48  48  97 CALM      29.95S FOG

$$
OHZ001>008-015>018-024>025-250700-
NORTHWEST OHIO

CITY           SKY/WX    TMP DP  RH WIND       PRES   REMARKS
WAUSEON*       FAIR      48  48 100 SW5       29.95S FOG
DEFIANCE       MOCLDY    50  47  89 SW5       29.97S FOG
6HR MIN TEMP:  48; 6HR MAX TEMP:  52;

FINDLAY        PTCLDY    48  43  82 S6        29.97S
6HR MIN TEMP:  46; 6HR MAX TEMP:  58;

TOLEDO EXPRESS PTCLDY    47  44  90 SW3       29.95F
6HR MIN TEMP:  44; 6HR MAX TEMP:  51;

TOLEDO METCALF PTCLDY    50  44  80 SW6       29.96F
6HR MIN TEMP:  46; 6HR MAX TEMP:  55;

LIMA           PTCLDY    53  46  77 SW8       29.98F
6HR MIN TEMP:  50; 6HR MAX TEMP:  55;


$$
AND FOR LAKE MICHIGAN COASTAL AND OPEN LAKE BUOY OBSERVATIONS

STATION/POSITION TEMP    WIND        PRES    VSBY  WAVE
                 AIR SEA DIR/SP/G                  HT/PER
                 (F)     (DEG/KT/KT) (MB)    (MI)  (FT/S)
CALUMET HARBOR    60     210/  5/  8 1012.0S
MICHIGAN CITY     58     170/  7/ 11   N/A
SAINT JOSEPH      59                 1013.9S
SOUTH LAKE BUOY   57 54  200/ 12/ 14 1012.0F

$$
&&



USA.gov is the U.S. government's official web portal to all federal, state and local government web resources and services.